Location: Florence
(33.9745°N, 118.2481°W)
Time: 20:05:32
(UTC+00:00)

Helios 1B rocket - Pass Details

Date: 23 March 2023
Orbit: 556 x 566 km, 98.2° (Epoch: 05 June)

Event Time Altitude Azimuth Distance (km) Brightness Sun altitude
Rises 13:23:49 0° 350° (N) 2,746 5.8 -6.8°
Reaches altitude 10° 13:26:43 10° 327° (NNW) 1,844 4.7 -6.2°
Maximum altitude 13:28:59 15° 292° (WNW) 1,548 4.1 -5.8°
Drops below altitude 10° 13:31:15 10° 257° (WSW) 1,837 4.3 -5.3°
Enters shadow 13:33:20 - 238° (WSW) 2,449 5.1 -4.9°
